Location: Namasale
(1.5000°N, 32.6167°E)
Time: 16:43:57
(UTC+00:00)

STARLINK-1110 - Pass Details

Date: 09 April 2020
Orbit: 548 x 551 km, 53.0° (Epoch: 27 May)

Event Time Altitude Azimuth Distance (km) Brightness Sun altitude
Rises 16:52:02 0° 319° (NW) 2,704 8.0 -14.9°
Reaches altitude 10° 16:54:17 10° 315° (NW) 1,813 7.1 -15.5°
Maximum altitude 16:58:20 58° 236° (WSW) 642 4.1 -16.5°
Enters shadow 17:01:40 15° 159° (SSE) 1,535 5.6 -17.3°
